Location: Bruderhein
(53.8035°N, 112.9265°W)
Time: 00:52:12
(UTC+00:00)

Gurwin Techsat 1B - Pass Details

Date: 18 April 2024
Orbit: 811 x 812 km, 98.9° (Epoch: 20 May)

Event Time Altitude Azimuth Distance (km) Brightness Sun altitude
Rises 11:07:19 0° 17° (NNE) 3,350 12.8 -10.6°
Reaches altitude 10° 11:09:41 10° 20° (NNE) 2,414 12.0 -10.4°
Maximum altitude 11:15:00 67° 104° (ESE) 882 9.0 -9.7°
Drops below altitude 10° 11:20:17 10° 187° (S) 2,396 10.7 -9.1°
Sets 11:22:38 0° 190° (S) 3,324 11.4 -8.8°
